Regional Weather Roundup
Issued by NWS

Home | Current Version | Previous Version | Text Only | Print | Product List | Glossary On
Versions: 1 2 3 4 5 6 7 8 9 10 11 12 13 14 15 16 17 18 19 20 21 22 23 24 25 26 27 28 29 30 31 32 33 34 35 36 37 38 39 40 41 42 43 44 45 46 47 48 49 50
333
ASUS44 KLIX 210005
RWRLA
LOUISIANA WEATHER ROUNDUP
NATIONAL WEATHER SERVICE NEW ORLEANS LA
700 PM CDT SUN APR 20 2014

NOTE: "FAIR" INDICATES FEW OR NO CLOUDS BELOW 12,000 FEET WITH NO
      SIGNIFICANT WEATHER AND/OR OBSTRUCTIONS TO VISIBILITY.
      SKY/WX - SKY CONDITION AND SIGNIFICANT WEATHER.
      TMP - AIR TEMPERATURE.    DP   - DEWPOINT TEMPERATURE.
      RH  - RELATIVE HUMIDITY.  PRES - PRESSURE.
      HX  - HEAT INDEX.         WCI  - WIND CHILL INDEX.

*  THESE STATIONS ARE NOT NWS OR FAA STATIONS AND ARE NOT UNDER
   NWS QUALITY CONTROL.

LAZ040-048-061>063-065-066-069-210100-
SOUTHEAST LOUISIANA

CITY           SKY/WX    TMP DP  RH WIND       PRES   REMARKS
N.O. AUDUBON     N/A     77  61  56 MISG        N/A
6HR MIN TEMP:  77; 6HR MAX TEMP:  85;

N.O. INTL ARPT PTCLDY    78  50  37 N3        30.08F
6HR MIN TEMP:  78; 6HR MAX TEMP:  82;

N.O. LAKEFRONT CLEAR     78  54  43 CALM      30.09S
6HR MIN TEMP:  73; 6HR MAX TEMP:  78;

N.O. DOWNTOWN* FAIR      79  52  38 S6        30.09S
6HR MIN TEMP:  77; 6HR MAX TEMP:  82;

SLIDELL        CLEAR     76  53  44 SW5       30.09R
6HR MIN TEMP:  76; 6HR MAX TEMP:  83;

BATON ROUGE    CLEAR     80  53  39 NE3       30.07F
6HR MIN TEMP:  80; 6HR MAX TEMP:  85;

BOOTHVILLE     CLEAR     66  59  78 E8        30.11F
6HR MIN TEMP:  66; 6HR MAX TEMP:  70;

BELLE CHASSE   CLEAR    N/A N/A N/A S8        30.08F
BOGALUSA*        N/A     80  49  34 E5        30.10S
6HR MIN TEMP:  80; 6HR MAX TEMP:  83;

GALLIANO*      CLEAR     73  62  68 SE5       30.10S
6HR MIN TEMP:  73; 6HR MAX TEMP:  80;

NEW ROADS*     FAIR      79  51  37 E5        30.06F
6HR MIN TEMP:  78; 6HR MAX TEMP:  82;

GONZALES*      FAIR      78  52  40 CALM      30.07F
6HR MIN TEMP:  78; 6HR MAX TEMP:  82;

HAMMOND*       CLEAR     77  52  41 CALM      30.10S
HOUMA*         CLEAR     73  61  64 S9        30.09S
PORT FOURCHON* CLEAR     70  61  73 SE6       30.11F

$$

LAZ041-044-053-054-210100-
SOUTHWEST LOUISIANA

CITY           SKY/WX    TMP DP  RH WIND       PRES   REMARKS
LAKE CHARLES   CLEAR     75  57  53 S6        30.08S
6HR MIN TEMP:  75; 6HR MAX TEMP:  82;

LAFAYETTE      CLEAR     77  57  50 S10       30.07F
6HR MIN TEMP:  77; 6HR MAX TEMP:  83;

PATTERSON      CLEAR     75  52  43 S9        30.13S
6HR MIN TEMP:  75; 6HR MAX TEMP:  82;

SALT POINT       N/A     75  65  70 CALM      30.09S
6HR MIN TEMP:  75; 6HR MAX TEMP:  82;

NEW IBERIA     CLEAR     76  54  46 S10       30.09S
6HR MIN TEMP:  76; 6HR MAX TEMP:  83;

CHENAULT AIRPK CLEAR     77  52  41 S10       30.09S

$$

LAZ027-028-210100-
CENTRAL LOUISIANA

CITY           SKY/WX    TMP DP  RH WIND       PRES   REMARKS
FORT POLK      CLEAR     77  55  46 S6        30.06F
6HR MIN TEMP:  76; 6HR MAX TEMP:  82;

ALEXANDRIA INT CLEAR     76  56  49 E7        30.04F
6HR MIN TEMP:  75; 6HR MAX TEMP:  84;

ALEXANDRIA     CLEAR     80  55  42 S3        30.06F
6HR MIN TEMP:  80; 6HR MAX TEMP:  84;


$$

LAZ001-002-210100-
NORTHWEST LOUISIANA

CITY           SKY/WX    TMP DP  RH WIND       PRES   REMARKS
SHREVEPORT     CLOUDY    77  54  44 CALM      30.05F
6HR MIN TEMP:  77; 6HR MAX TEMP:  83;

BARKSDALE AFB  MOCLDY    78  55  44 S2        30.05S
6HR MIN TEMP:  77; 6HR MAX TEMP:  82;

DTN SHREVEPORT MOCLDY    75  57  53 SE8       30.05S
6HR MIN TEMP:  75; 6HR MAX TEMP:  79;


$$

LAZ014-016-210100-
NORTHEAST LOUISIANA

CITY           SKY/WX    TMP DP  RH WIND       PRES   REMARKS
MONROE         PTCLDY    77  52  41 CALM      30.06F
6HR MIN TEMP:  77; 6HR MAX TEMP:  82;

TALLULAH       CLEAR     77  54  44 E6        30.07F
6HR MIN TEMP:  77; 6HR MAX TEMP:  82;


$$




USA.gov is the U.S. government's official web portal to all federal, state and local government web resources and services.